Plovdiv, Bulgaria

4:38 AM EET on December 16, 2019 (GMT +0200)
Plovdiv

Weather History for LBPD - October, 2019

Change the Weather History Date:

Tuesday, October 29, 2019

  Actual Average (WUND) Record (WUND)
Temperature  
Mean Temperature 55 °F -  
Max Temperature 71 °F - - (-1)
Min Temperature 39 °F - - (-1)
Degree Days  
Heating Degree Days 10    
Growing Degree Days 5 (Base 50)    
Moisture  
Dew Point 39 °F    
Average Humidity 63    
Maximum Humidity 87    
Minimum Humidity 31    
Precipitation  
Precipitation 0.00 in - - ()
Sea Level Pressure  
Sea Level Pressure 30.01 in    
Wind  
Wind Speed 3 mph ()    
Max Wind Speed 8 mph    
Max Gust Speed -    
Visibility 6.1 miles    
Events      
Averages and records for this station are not official NWS values.
T = Trace of Precipitation, MM = Missing Value Source: Averaged Metar Reports

Daily Weather History Graph

Daily Weather History Graph

Search for Another Location

Airport or City:

Astronomy

Oct. 29, 2019 Rise Set
Actual Time 6:49 AM EET 5:19 PM EET
Civil Twilight 6:20 AM EET 5:48 PM EET
Nautical Twilight 5:47 AM EET 6:20 PM EET
Astronomical Twilight 5:15 AM EET 6:53 PM EET
Moon 8:01 AM EET (10/29) 6:29 PM EET (10/29)
Length of Visible Light 11h 27m
Length of Day
10h 29m
New Moon, 2% of the Moon is Illuminated
Oct 29
New Moon
Nov 4
First Quarter
Nov 12
Full
Nov 19
Last Quarter
Nov 26
New

Hourly Weather History & Observations

Time (EET) Temp. Windchill Dew Point Humidity Pressure Visibility Wind Dir Wind Speed Gust Speed Precip Events Conditions
12:00 AM 50.0 °F - 41.0 °F 71% 29.98 in 6.2 mi Variable 1.2 mph - N/A   Unknown
12:30 AM 44.6 °F - 37.4 °F 76% 29.98 in 6.2 mi Calm Calm - N/A   Unknown
1:00 AM 46.4 °F 45.2 °F 35.6 °F 66% 29.98 in 6.2 mi WNW 3.5 mph - N/A   Unknown
1:30 AM 42.8 °F 40.1 °F 37.4 °F 81% 29.98 in 6.2 mi SW 4.6 mph - N/A   Unknown
2:00 AM 42.8 °F - 37.4 °F 81% 29.98 in 6.2 mi Calm Calm - N/A   Unknown
2:30 AM 44.6 °F 43.1 °F 37.4 °F 76% 29.98 in 6.2 mi NNW 3.5 mph - N/A   Unknown
3:00 AM 42.8 °F - 39.2 °F 87% 29.98 in 6.2 mi Variable 2.3 mph - N/A   Unknown
3:30 AM 41.0 °F 39.0 °F 37.4 °F 87% 29.98 in 6.2 mi West 3.5 mph - N/A   Unknown
4:00 AM 46.4 °F 45.2 °F 39.2 °F 76% 29.98 in 6.2 mi WSW 3.5 mph - N/A   Unknown
4:30 AM 41.0 °F 38.0 °F 37.4 °F 87% 30.01 in 6.2 mi WNW 4.6 mph - N/A   Unknown
5:00 AM 41.0 °F 39.0 °F 33.8 °F 76% 30.01 in 6.2 mi WSW 3.5 mph - N/A   Unknown
5:30 AM 41.0 °F 38.0 °F 37.4 °F 87% 30.01 in 6.2 mi West 4.6 mph - N/A   Unknown
6:00 AM 39.2 °F 37.0 °F 35.6 °F 87% 30.01 in 6.2 mi SW 3.5 mph - N/A   Unknown
6:30 AM 41.0 °F 39.0 °F 35.6 °F 81% 30.01 in 6.2 mi WNW 3.5 mph - N/A   Unknown
7:00 AM 41.0 °F 39.0 °F 37.4 °F 87% 30.01 in 5.0 mi West 3.5 mph - N/A   Unknown
7:30 AM 41.0 °F 38.0 °F 35.6 °F 81% 30.04 in 5.0 mi WNW 4.6 mph - N/A   Unknown
8:00 AM 42.8 °F - 37.4 °F 81% 30.04 in 5.6 mi NW 2.3 mph - N/A   Unknown
8:30 AM 44.6 °F 42.2 °F 39.2 °F 81% 30.04 in 5.6 mi WNW 4.6 mph - N/A   Unknown
9:00 AM 50.0 °F - 41.0 °F 71% 30.04 in 6.2 mi WNW 4.6 mph - N/A   Unknown
9:30 AM 51.8 °F - 41.0 °F 67% 30.04 in 6.2 mi NW 4.6 mph - N/A   Unknown
10:00 AM 55.4 °F - 41.0 °F 58% 30.04 in 6.2 mi West 3.5 mph - N/A   Unknown
10:30 AM 59.0 °F - 39.2 °F 48% 30.04 in 6.2 mi Variable 2.3 mph - N/A   Unknown
11:00 AM 60.8 °F - 39.2 °F 45% 30.04 in 6.2 mi Variable 2.3 mph - N/A   Unknown
11:30 AM 64.4 °F - 39.2 °F 40% 30.04 in 6.2 mi Variable 2.3 mph - N/A   Unknown
12:00 PM 66.2 °F - 41.0 °F 40% 30.01 in 6.2 mi Variable 2.3 mph - N/A   Unknown
12:30 PM 66.2 °F - 39.2 °F 37% 30.01 in 6.2 mi Variable 3.5 mph - N/A   Unknown
1:00 PM 68.0 °F - 41.0 °F 37% 30.01 in 6.2 mi East 3.5 mph - N/A   Unknown
1:30 PM 69.8 °F - 37.4 °F 31% 29.98 in 6.2 mi East 5.8 mph - N/A   Unknown
2:00 PM 71.6 °F - 39.2 °F 31% 29.98 in 6.2 mi East 6.9 mph - N/A   Unknown
2:30 PM 71.6 °F - 39.2 °F 31% 29.98 in 6.2 mi East 6.9 mph - N/A   Unknown
3:00 PM 71.6 °F - 41.0 °F 33% 29.98 in 6.2 mi East 6.9 mph - N/A   Unknown
3:30 PM 71.6 °F - 41.0 °F 33% 29.95 in 6.2 mi East 6.9 mph - N/A   Unknown
4:00 PM 71.6 °F - 41.0 °F 33% 29.95 in 6.2 mi ESE 8.1 mph - N/A   Unknown
5:30 PM 64.4 °F - 41.0 °F 42% 29.98 in 6.2 mi Variable 2.3 mph - N/A   Unknown
6:00 PM 59.0 °F - 41.0 °F 51% 29.98 in 6.2 mi South 5.8 mph - N/A   Unknown
6:30 PM 55.4 °F - 39.2 °F 54% 29.98 in 6.2 mi South 5.8 mph - N/A   Unknown
7:00 PM 55.4 °F - 41.0 °F 58% 30.01 in 6.2 mi SW 4.6 mph - N/A   Unknown
7:30 PM 53.6 °F - 39.2 °F 58% 30.01 in 6.2 mi WSW 4.6 mph - N/A   Unknown
8:00 PM 53.6 °F - 41.0 °F 62% 30.01 in 6.2 mi Variable 2.3 mph - N/A   Unknown
8:30 PM 50.0 °F - 39.2 °F 66% 30.01 in 6.2 mi WSW 4.6 mph - N/A   Unknown
9:00 PM 50.0 °F - 37.4 °F 62% 30.01 in 6.2 mi WSW 4.6 mph - N/A   Unknown
9:30 PM 50.0 °F - 39.2 °F 66% 30.04 in 6.2 mi West 3.5 mph - N/A   Unknown
10:00 PM 50.0 °F - 39.2 °F 66% 30.04 in 6.2 mi West 2.3 mph - N/A   Unknown
10:30 PM 50.0 °F - 41.0 °F 71% 30.04 in 6.2 mi West 4.6 mph - N/A   Unknown
11:00 PM 48.2 °F - 39.2 °F 71% 30.04 in 6.2 mi West 6.9 mph - N/A   Unknown
11:30 PM 48.2 °F - 37.4 °F 66% 30.04 in 6.2 mi WNW 5.8 mph - N/A   Unknown